Weather History for Spokane Felts, WA

Change the Weather History Date:

Saturday, July 13, 2013

  Actual Average Record
Temperature  
Mean Temperature 68 °F 70 °F  
Max Temperature 80 °F 85 °F 102 °F (2002)
Min Temperature 55 °F 54 °F 49 °F (2010)
Degree Days  
Heating Degree Days 0 1  
Month to date heating degree days 0 16  
Since 1 June heating degree days 105 134  
Since 1 July heating degree days 0 16  
Cooling Degree Days 3 5  
Month to date cooling degree days 107 56  
Year to date cooling degree days 190 103  
Since 1 June cooling degree days 164 96  
Growing Degree Days 17 (Base 50)    
Moisture  
Dew Point 38 °F    
Average Humidity 39    
Maximum Humidity 59    
Minimum Humidity 19    
Precipitation  
Precipitation 0.00 in 0.03 in 0.42 in (2011)
Month to date precipitation T 0.48  
Year to date precipitation 7.96 9.70  
Sea Level Pressure  
Sea Level Pressure 30.06 in    
Wind  
Wind Speed 4 mph (West)    
Max Wind Speed 13 mph    
Max Gust Speed 16 mph    
Visibility 10 miles    
Events      
T = Trace of Precipitation, MM = Missing Value Source: NWS Daily Summary

Daily Weather History Graph

Daily Weather History Graph

Search for Another Location

Airport:

Trip Planner

Search our weather history database for the weather conditions in past years. The results will help you decide how hot, cold, wet, or windy it might be!

Date:

Astronomy

Jul. 13, 2013 Rise Set
Actual Time 5:05 AM PDT 8:44 PM PDT
Civil Twilight 4:25 AM PDT 9:23 PM PDT
Nautical Twilight 3:33 AM PDT 10:15 PM PDT
Astronomical Twilight 2:19 AM PDT 11:28 PM PDT
Moon 10:53 AM PDT (7/13) 10:57 PM PDT (7/13)
Length of Visible Light 16h 57m
Length of Day
15h 39m
Waxing Crescent, 26% of the Moon is Illuminated
Jul 13
Waxing Crescent
Jul 15
First Quarter
Jul 22
Full
Jul 29
Last Quarter
Aug 6
New

Hourly Weather History & Observations

Time (PDT) Temp. Dew Point Humidity Pressure Visibility Wind Dir Wind Speed Gust Speed Precip Events Conditions
12:53 AM 57.9 °F 39.9 °F 51% 29.94 in 10.0 mi Calm Calm - N/A   Scattered Clouds
1:53 AM 57.0 °F 41.0 °F 55% 29.95 in 10.0 mi Calm Calm - N/A   Overcast
2:53 AM 57.9 °F 41.0 °F 53% 29.97 in 10.0 mi Calm Calm - N/A   Overcast
3:53 AM 57.0 °F 42.1 °F 57% 29.98 in 10.0 mi Calm Calm - N/A   Overcast
4:53 AM 57.0 °F 42.1 °F 57% 29.99 in 10.0 mi Calm Calm - N/A   Overcast
5:53 AM 55.9 °F 41.0 °F 57% 30.02 in 10.0 mi Calm Calm - N/A   Overcast
6:53 AM 57.9 °F 36.0 °F 44% 30.06 in 10.0 mi WSW 8.1 mph - N/A   Mostly Cloudy
7:53 AM 59.0 °F 35.1 °F 41% 30.09 in 10.0 mi SW 8.1 mph - N/A   Clear
8:53 AM 61.0 °F 36.0 °F 39% 30.11 in 9.0 mi Variable 3.5 mph - N/A   Clear
9:53 AM 64.9 °F 39.0 °F 39% 30.12 in 10.0 mi South 6.9 mph - N/A   Clear
10:53 AM 70.0 °F 39.0 °F 32% 30.11 in 10.0 mi Calm Calm - N/A   Clear
11:53 AM 73.0 °F 36.0 °F 26% 30.11 in 10.0 mi South 10.4 mph - N/A   Clear
12:53 PM 75.0 °F 36.0 °F 24% 30.11 in 10.0 mi SSW 9.2 mph - N/A   Clear
1:53 PM 75.9 °F 34.0 °F 22% 30.10 in 10.0 mi South 9.2 mph - N/A   Partly Cloudy
2:53 PM 75.9 °F 34.0 °F 22% 30.09 in 10.0 mi Variable 3.5 mph - N/A   Clear
3:53 PM 78.1 °F 35.1 °F 21% 30.08 in 10.0 mi West 6.9 mph - N/A   Partly Cloudy
4:53 PM 78.1 °F 34.0 °F 20% 30.07 in 10.0 mi Calm Calm - N/A   Clear
5:53 PM 79.0 °F 35.1 °F 20% 30.06 in 10.0 mi Calm Calm - N/A   Clear
6:53 PM 78.1 °F 36.0 °F 22% 30.06 in 10.0 mi North 3.5 mph - N/A   Clear
7:53 PM 73.0 °F 39.9 °F 30% 30.06 in 10.0 mi NNE 3.5 mph - N/A   Clear
8:53 PM 66.9 °F 39.9 °F 37% 30.07 in 10.0 mi North 3.5 mph - N/A   Clear
9:53 PM 63.0 °F 39.0 °F 41% 30.08 in 10.0 mi North 3.5 mph - N/A   Clear
10:53 PM 61.0 °F 39.0 °F 44% 30.07 in 10.0 mi NE 3.5 mph - N/A   Clear
11:53 PM 57.9 °F 43.0 °F 58% 30.08 in 10.0 mi ENE 4.6 mph - N/A   Clear